KMADALTO1 Weather Reports


time (UTC)temp
C
wind
direction
speed
KPH
gust
KPH
rain 1hr
cm
rain 24hr
cm
rain mn
cm
humidity
%
barometer
mb
20260506051051 13 0 0.0 0.0 0.00 0.00 0.00 52 1009.3
20260506050551 13 0 0.0 0.0 0.00 0.00 0.00 53 1009.3
20260506045055 13 0 0.0 0.0 0.00 0.00 0.00 55 1009.2
20260506044605 13 0 0.0 0.0 0.00 0.00 0.00 56 1009.3
20260506044053 13 0 0.0 0.0 0.00 0.00 0.00 57 1009.3
20260506043552 14 0 0.0 0.0 0.00 0.00 0.00 57 1009.3
20260506043052 14 0 0.0 0.0 0.00 0.00 0.00 58 1009.1
20260506042551 14 0 0.0 0.0 0.00 0.00 0.00 58 1009.1
20260506042052 14 0 0.0 0.0 0.00 0.00 0.00 59 1008.9
20260506041557 14 0 0.0 0.0 0.00 0.00 0.00 59 1008.9
20260506041052 15 0 0.0 0.0 0.00 0.00 0.00 60 1008.9
20260506040551 15 0 0.0 0.0 0.00 0.00 0.00 61 1008.7
20260506040057 15 0 0.0 0.0 0.00 0.00 0.00 62 1008.8
20260506035551 15 0 0.0 0.0 0.00 0.00 0.00 62 1008.7
20260506035051 15 0 0.0 0.0 0.00 0.00 0.00 63 1008.8
20260506034552 15 0 0.0 0.0 0.00 0.00 0.00 64 1008.8
20260506034051 15 0 0.0 0.0 0.00 0.00 0.00 64 1008.8
20260506033550 15 0 0.0 0.0 0.00 0.00 0.00 65 1008.8
20260506033052 15 0 0.0 0.0 0.00 0.00 0.00 66 1008.8
20260506032556 15 0 0.0 0.0 0.00 0.00 0.00 66 1008.6
20260506032052 15 0 0.0 0.0 0.00 0.00 0.00 66 1008.7
20260506031558 15 0 0.0 0.0 0.00 0.00 0.00 67 1008.7
20260506031050 16 0 0.0 0.0 0.00 0.00 0.00 67 1008.6
20260506030556 16 0 0.0 0.0 0.00 0.00 0.00 67 1008.7
20260506030055 16 0 0.0 0.0 0.00 0.00 0.00 67 1008.7
20260506025551 16 0 0.0 0.0 0.00 0.00 0.00 67 1008.8
20260506025051 16 0 0.0 0.0 0.00 0.00 0.00 67 1008.8
20260506024600 16 0 0.0 0.0 0.00 0.00 0.00 67 1008.9
20260506024051 16 0 0.0 0.0 0.00 0.00 0.00 67 1008.8
20260506023552 16 0 0.0 0.0 0.00 0.00 0.00 67 1009.0
20260506023058 16 0 0.0 0.0 0.00 0.00 0.00 67 1008.9
20260506022551 16 0 0.0 0.0 0.00 0.00 0.00 67 1008.9
20260506022051 16 0 0.0 0.0 0.00 0.00 0.00 68 1009.0
20260506021550 16 0 0.0 0.0 0.00 0.00 0.00 68 1009.0
20260506021051 16 0 0.0 0.0 0.00 0.00 0.00 68 1008.9
20260506020550 16 0 0.0 1.6 0.00 0.00 0.00 68 1008.9
20260506020048 16 0 0.0 1.6 0.00 0.00 0.00 68 1009.0
20260506015553 16 0 0.0 0.0 0.00 0.00 0.00 68 1008.9
20260506015050 16 0 0.0 0.0 0.00 0.00 0.00 68 1009.0
20260506014554 16 0 0.0 0.0 0.00 0.00 0.00 68 1008.9
20260506014052 16 0 0.0 0.0 0.00 0.00 0.00 68 1008.7
20260506013553 16 0 0.0 0.0 0.00 0.00 0.00 68 1008.8
20260506013052 16 0 0.0 0.0 0.00 0.00 0.00 68 1008.6
20260506012551 16 0 0.0 0.0 0.00 0.00 0.00 68 1008.6
20260506012052 17 0 0.0 0.0 0.00 0.00 0.00 68 1008.6
20260506011556 17 0 0.0 0.0 0.00 0.00 0.00 68 1008.7
20260506011051 17 0 0.0 0.0 0.00 0.00 0.00 68 1008.7
20260506010555 17 0 0.0 3.2 0.00 0.00 0.00 67 1008.6
20260506010054 17 0 0.0 3.2 0.00 0.00 0.00 67 1008.6
20260506005554 17 0 0.0 3.2 0.00 0.00 0.00 67 1008.5
20260506005050 17 0 0.0 0.0 0.00 0.00 0.00 67 1008.5
20260506004554 17 0 0.0 3.2 0.00 0.00 0.00 67 1008.4
20260506004052 17 0 0.0 3.2 0.00 0.00 0.00 67 1008.5
20260506003551 17 0 0.0 3.2 0.00 0.00 0.00 67 1008.4
20260506003053 17 0 0.0 1.6 0.00 0.00 0.00 67 1008.3
20260506002551 17 0 0.0 0.0 0.00 0.00 0.00 67 1008.3
20260506002051 17 0 0.0 0.0 0.00 0.00 0.00 66 1008.2
20260506001601 17 0 0.0 0.0 0.00 0.00 0.00 66 1008.1
20260506001052 17 0 0.0 0.0 0.00 0.00 0.00 65 1008.0
20260506000552 18 0 0.0 1.6 0.00 0.00 0.00 65 1008.1
20260506000054 18 0 0.0 1.6 0.00 0.00 0.00 65 1008.2
20260505235551 18 0 0.0 1.6 0.00 0.00 0.00 65 1008.0
20260505235051 18 0 0.0 3.2 0.00 0.00 0.00 65 1008.0
20260505234559 18 229 0.0 3.2 0.00 0.00 0.00 64 1008.0
20260505234054 18 0 1.6 3.2 0.00 0.00 0.00 64 1008.1
20260505233551 18 0 0.0 4.8 0.00 0.00 0.00 63 1008.2
20260505233055 18 0 0.0 4.8 0.00 0.00 0.00 63 1008.0
20260505232554 18 232 1.6 4.8 0.00 0.00 0.00 62 1007.9
20260505232051 18 186 1.6 14.5 0.00 0.00 0.00 62 1008.0
20260505231602 19 0 3.2 14.5 0.00 0.00 0.00 61 1007.8
20260505231050 19 167 1.6 14.5 0.00 0.00 0.00 60 1007.7
20260505230551 20 355 4.8 17.7 0.00 0.00 0.00 59 1007.7
20260505230059 21 241 6.4 22.5 0.00 0.00 0.00 55 1007.7
20260505225551 22 105 6.4 22.5 0.00 0.00 0.00 49 1007.8
20260505225053 23 251 4.8 20.9 0.00 0.00 0.00 44 1007.5
20260505224554 23 309 11.3 25.7 0.00 0.00 0.00 38 1007.1
20260505224051 23 223 11.3 25.7 0.00 0.00 0.00 37 1006.6
20260505223551 23 187 9.7 22.5 0.00 0.00 0.00 36 1006.2
20260505223049 23 254 6.4 22.5 0.00 0.00 0.00 36 1006.2
20260505222552 23 150 8.0 22.5 0.00 0.00 0.00 35 1005.9
20260505222051 23 297 6.4 25.7 0.00 0.00 0.00 35 1006.1
20260505221557 23 273 9.7 27.4 0.00 0.00 0.00 34 1006.1
20260505221051 23 232 9.7 27.4 0.00 0.00 0.00 34 1006.1
20260505220554 23 257 12.9 25.7 0.00 0.00 0.00 34 1005.9
20260505220056 24 223 4.8 27.4 0.00 0.00 0.00 34 1005.9
20260505215551 24 219 11.3 32.2 0.00 0.00 0.00 34 1006.0
20260505215051 24 213 11.3 32.2 0.00 0.00 0.00 34 1005.9
20260505214555 24 261 11.3 30.6 0.00 0.00 0.00 33 1006.0
20260505214051 24 263 11.3 35.4 0.00 0.00 0.00 34 1005.8
20260505213551 24 198 11.3 35.4 0.00 0.00 0.00 33 1005.9
20260505213059 25 235 14.5 30.6 0.00 0.00 0.00 33 1006.0
20260505212550 25 246 9.7 32.2 0.00 0.00 0.00 33 1005.8
20260505212051 25 267 11.3 32.2 0.00 0.00 0.00 33 1005.8
20260505211558 24 308 12.9 38.6 0.00 0.00 0.00 33 1005.7
20260505211051 24 316 16.1 40.2 0.00 0.00 0.00 33 1005.6
20260505210550 25 232 12.9 40.2 0.00 0.00 0.00 32 1005.6
20260505210054 25 225 8.0 30.6 0.00 0.00 0.00 32 1005.3
20260505205550 25 202 4.8 33.8 0.00 0.00 0.00 32 1005.4
20260505205051 25 279 14.5 33.8 0.00 0.00 0.00 32 1005.4
20260505204557 25 266 9.7 32.2 0.00 0.00 0.00 33 1005.6
20260505204050 25 234 11.3 27.4 0.00 0.00 0.00 33 1006.0
20260505203551 25 259 9.7 32.2 0.00 0.00 0.00 33 1005.8
20260505203100 25 330 12.9 38.6 0.00 0.00 0.00 33 1005.9
20260505202551 25 200 16.1 38.6 0.00 0.00 0.00 33 1005.9
20260505202051 25 225 12.9 30.6 0.00 0.00 0.00 34 1005.9
20260505201601 24 234 14.5 41.8 0.00 0.00 0.00 34 1005.7
20260505201051 25 294 16.1 41.8 0.00 0.00 0.00 34 1005.7
20260505200551 25 155 11.3 30.6 0.00 0.00 0.00 33 1005.8
20260505195553 25 293 12.9 38.6 0.00 0.00 0.00 34 1005.9
20260505195050 25 155 9.7 45.1 0.00 0.00 0.00 36 1006.0
20260505194607 24 248 12.9 45.1 0.00 0.00 0.00 36 1006.0
20260505194050 24 223 12.9 37.0 0.00 0.00 0.00 37 1006.0
20260505193550 23 209 6.4 32.2 0.00 0.00 0.00 37 1006.0
20260505193115 24 266 12.9 32.2 0.00 0.00 0.00 36 1006.0
20260505192550 24 267 9.7 29.0 0.00 0.00 0.00 37 1006.2
20260505192050 24 194 9.7 30.6 0.00 0.00 0.00 37 1006.2
20260505191632 24 192 14.5 35.4 0.00 0.00 0.00 36 1006.2
20260505191049 25 259 14.5 37.0 0.00 0.00 0.00 37 1006.3
20260505190551 24 219 12.9 38.6 0.00 0.00 0.00 37 1006.2
20260505190112 24 136 12.9 38.6 0.00 0.00 0.00 37 1006.4
20260505185553 25 273 16.1 45.1 0.00 0.00 0.00 36 1006.4
20260505185051 25 217 17.7 45.1 0.00 0.00 0.00 37 1006.4
20260505184613 25 235 16.1 40.2 0.00 0.00 0.00 36 1006.3
20260505184051 25 206 14.5 37.0 0.00 0.00 0.00 36 1006.6
20260505183550 25 335 14.5 46.7 0.00 0.00 0.00 37 1006.6
20260505183056 25 304 14.5 48.3 0.00 0.00 0.00 37 1006.6
20260505182550 25 278 14.5 48.3 0.00 0.00 0.00 36 1006.7
20260505182056 25 231 16.1 48.3 0.00 0.00 0.00 37 1006.6
20260505181555 25 308 11.3 43.5 0.00 0.00 0.00 36 1006.5
20260505181050 25 246 14.5 35.4 0.00 0.00 0.00 36 1006.6
20260505180550 25 344 14.5 35.4 0.00 0.00 0.00 37 1007.0
20260505180104 25 313 12.9 33.8 0.00 0.00 0.00 37 1006.8
20260505175554 25 213 14.5 38.6 0.00 0.00 0.00 37 1007.0
20260505175050 25 194 17.7 38.6 0.00 0.00 0.00 37 1007.2
20260505174606 24 257 12.9 43.5 0.00 0.00 0.00 38 1007.1
20260505174051 24 281 16.1 51.5 0.00 0.00 0.00 37 1007.2
20260505173550 24 218 11.3 51.5 0.00 0.00 0.00 39 1007.2
20260505173054 24 254 16.1 40.2 0.00 0.00 0.00 39 1007.1
20260505172552 23 267 11.3 33.8 0.00 0.00 0.00 40 1007.3
20260505172050 23 241 17.7 33.8 0.00 0.00 0.00 41 1007.2
20260505171552 23 249 14.5 32.2 0.00 0.00 0.00 41 1007.2
20260505171051 23 178 12.9 27.4 0.00 0.00 0.00 42 1007.3
20260505170551 23 234 12.9 27.4 0.00 0.00 0.00 42 1007.3
20260505170055 23 281 12.9 32.2 0.00 0.00 0.00 43 1007.4
20260505165550 23 259 9.7 32.2 0.00 0.00 0.00 41 1007.4
20260505165050 23 270 9.7 27.4 0.00 0.00 0.00 41 1007.4
20260505164553 23 239 9.7 25.7 0.00 0.00 0.00 42 1007.4
20260505164050 23 200 9.7 24.1 0.00 0.00 0.00 43 1007.5
20260505163550 23 235 9.7 24.1 0.00 0.00 0.00 44 1007.5
20260505163056 23 234 3.2 22.5 0.00 0.00 0.00 44 1007.6
20260505162549 23 210 8.0 22.5 0.00 0.00 0.00 45 1007.7
20260505162050 22 216 6.4 25.7 0.00 0.00 0.00 44 1007.8
20260505161555 22 252 6.4 25.7 0.00 0.00 0.00 44 1007.9
20260505161051 22 289 8.0 25.7 0.00 0.00 0.00 44 1007.9
20260505160551 23 252 4.8 24.1 0.00 0.00 0.00 45 1007.9
20260505153057 22 281 12.9 25.7 0.00 0.00 0.00 45 1008.5
20260505152551 22 119 6.4 20.9 0.00 0.00 0.00 46 1008.6
20260505152052 22 150 8.0 24.1 0.00 0.00 0.00 45 1008.6
20260505151553 22 331 8.0 24.1 0.00 0.00 0.00 47 1008.7
20260505151050 22 333 4.8 27.4 0.00 0.00 0.00 47 1008.7
20260505150552 21 270 9.7 27.4 0.00 0.00 0.00 48 1008.6
20260505140550 20 275 12.9 40.2 0.00 0.00 0.00 52 1009.3
20260505124557 16 322 8.0 17.7 0.00 0.00 0.00 60 1009.6
20260505124052 16 300 4.8 22.5 0.00 0.00 0.00 61 1009.5
20260505123553 15 165 6.4 22.5 0.00 0.00 0.00 61 1009.5
20260505123101 15 260 9.7 22.5 0.00 0.00 0.00 62 1009.5
20260505122550 15 225 6.4 22.5 0.00 0.00 0.00 63 1009.5
20260505122050 13 257 6.4 16.1 0.00 0.00 0.00 65 1009.4
20260505121554 12 199 6.4 16.1 0.00 0.00 0.00 65 1009.2
20260505121050 12 150 1.6 6.4 0.00 0.00 0.00 62 1009.4
20260505120550 11 215 0.0 4.8 0.00 0.00 0.00 60 1009.4
20260505120054 11 0 0.0 0.0 0.00 0.00 0.00 58 1009.3
20260505115549 10 0 0.0 0.0 0.00 0.00 0.00 55 1009.4
20260505115050 10 0 0.0 0.0 0.00 0.00 0.00 52 1009.4
20260505114600 9 0 0.0 0.0 0.00 0.00 0.00 51 1009.4
20260505114050 9 0 0.0 0.0 0.00 0.00 0.00 50 1009.4
20260505113549 8 0 0.0 0.0 0.00 0.00 0.00 48 1009.4
20260505113057 8 0 0.0 0.0 0.00 0.00 0.00 45 1009.3
20260505112550 7 0 0.0 0.0 0.00 0.00 0.00 43 1009.4
20260505112050 7 0 0.0 1.6 0.00 0.00 0.00 42 1009.4
20260505111557 7 0 0.0 4.8 0.00 0.00 0.00 41 1009.4
20260505111050 6 0 0.0 4.8 0.00 0.00 0.00 41 1009.4
20260505110551 6 0 0.0 3.2 0.00 0.00 0.00 41 1009.1
20260505102050 5 0 0.0 0.0 0.00 0.00 0.00 48 1009.0
20260505101605 5 0 0.0 0.0 0.00 0.00 0.00 48 1009.1
20260505101053 5 0 0.0 0.0 0.00 0.00 0.00 49 1009.1
20260505100550 5 0 0.0 3.2 0.00 0.00 0.00 49 1008.9
20260505100104 5 0 0.0 3.2 0.00 0.00 0.00 49 1008.9
20260505095551 5 0 0.0 3.2 0.00 0.00 0.00 50 1009.0
20260505095050 5 0 0.0 3.2 0.00 0.00 0.00 50 1008.8
20260505094551 6 138 0.0 1.6 0.00 0.00 0.00 51 1008.5
20260505094050 6 0 0.0 1.6 0.00 0.00 0.00 51 1008.5
20260505093550 6 0 0.0 3.2 0.00 0.00 0.00 51 1008.7
20260505093104 6 0 0.0 3.2 0.00 0.00 0.00 51 1008.6
20260505092550 6 327 0.0 3.2 0.00 0.00 0.00 51 1008.7
20260505092050 6 0 0.0 3.2 0.00 0.00 0.00 51 1008.6
20260505091556 6 327 0.0 3.2 0.00 0.00 0.00 51 1008.7
20260505091049 6 0 0.0 0.0 0.00 0.00 0.00 50 1008.6
20260505090550 6 0 0.0 0.0 0.00 0.00 0.00 50 1008.6
20260505090050 6 0 0.0 3.2 0.00 0.00 0.00 49 1008.7
20260505085550 6 0 0.0 3.2 0.00 0.00 0.00 49 1008.7
20260505085051 6 0 0.0 3.2 0.00 0.00 0.00 48 1008.8
20260505084602 6 0 0.0 3.2 0.00 0.00 0.00 48 1008.9
20260505084049 6 0 0.0 1.6 0.00 0.00 0.00 48 1008.9
20260505083551 6 0 0.0 0.0 0.00 0.00 0.00 49 1009.0
20260505083049 6 0 0.0 0.0 0.00 0.00 0.00 49 1009.1
20260505082550 6 0 0.0 0.0 0.00 0.00 0.00 50 1009.2
20260505082050 5 0 0.0 0.0 0.00 0.00 0.00 50 1009.1
20260505081605 5 0 0.0 0.0 0.00 0.00 0.00 50 1009.1
20260505081051 5 0 0.0 0.0 0.00 0.00 0.00 51 1009.1
20260505080553 5 0 0.0 0.0 0.00 0.00 0.00 52 1009.1
20260505080100 5 0 0.0 3.2 0.00 0.00 0.00 52 1009.1
20260505075550 5 0 0.0 3.2 0.00 0.00 0.00 52 1009.0
20260505075050 5 327 1.6 3.2 0.00 0.00 0.00 52 1009.0
20260505074552 5 326 0.0 3.2 0.00 0.00 0.00 53 1008.9
20260505074050 5 323 0.0 0.0 0.00 0.00 0.00 54 1009.0
20260505073550 5 0 0.0 0.0 0.00 0.00 0.00 54 1009.0
20260505073104 5 0 0.0 0.0 0.00 0.00 0.00 55 1009.2
20260505072549 6 0 0.0 0.0 0.00 0.00 0.00 55 1009.2
20260505072049 6 0 0.0 0.0 0.00 0.00 0.00 56 1009.0
20260505071554 6 0 0.0 0.0 0.00 0.00 0.00 57 1009.0
20260505071050 6 0 0.0 0.0 0.00 0.00 0.00 58 1009.0
20260505070551 6 0 0.0 0.0 0.00 0.00 0.00 58 1009.1
20260505070058 6 0 0.0 0.0 0.00 0.00 0.00 59 1009.1
20260505065551 6 0 0.0 0.0 0.00 0.00 0.00 59 1009.2
20260505065051 6 0 0.0 0.0 0.00 0.00 0.00 59 1009.1
20260505064551 6 0 0.0 0.0 0.00 0.00 0.00 60 1009.2
20260505064050 6 0 0.0 0.0 0.00 0.00 0.00 61 1009.1
20260505063551 6 0 0.0 0.0 0.00 0.00 0.00 62 1009.2
20260505063114 6 0 0.0 0.0 0.00 0.00 0.00 62 1009.3
20260505062550 6 0 0.0 3.2 0.00 0.00 0.00 62 1009.3
20260505062049 6 0 0.0 3.2 0.00 0.00 0.00 63 1009.4
20260505061554 6 0 0.0 3.2 0.00 0.00 0.00 63 1009.4
20260505061050 6 0 0.0 0.0 0.00 0.00 0.00 64 1009.5
20260505060550 7 0 0.0 4.8 0.00 0.00 0.00 64 1009.6
20260505060055 7 0 0.0 4.8 0.00 0.00 0.00 64 1009.6